Location: Morrison Observatory
(41.7012°N, 86.2315°W)
Time: 08:49:04
(UTC-04:00)

Daily predictions for brighter satellites

Satellite Brightness Start Highest point End
(mag) Time Altitude Azimuth Time Altitude Azimuth Time Altitude Azimuth
Cosmos 2322 4.1 19:18:19 10° NNW 19:23:45 41° ENE 19:29:07 10° SE
Cosmos 2218 Rocket 4.0 19:18:16 10° S 19:24:22 74° E 19:30:31 10° N
YAOGAN 1 2.6 19:20:27 10° SSE 19:24:42 62° ENE 19:28:59 10° N
Meteor 1-11 4.3 19:21:09 10° N 19:26:59 76° E 19:32:41 10° SSE
Meteor 2-14 Rocket 4.5 19:21:03 10° S 19:27:09 87° E 19:33:16 10° N
Cosmos-2242 3.6 19:23:10 10° SSW 19:27:23 63° W 19:31:37 10° N
SMAP 3.5 19:23:36 10° S 19:28:13 69° WSW 19:32:53 10° NNW
Meteor 1-16 Rocket 4.3 19:23:06 10° SSW 19:28:23 82° W 19:33:47 10° N
Cosmos 2056 Rocket 3.8 19:24:24 10° NNW 19:29:43 75° WSW 19:34:54 10° S
Cosmos 2151 3.2 19:27:03 10° N 19:31:13 48° ENE 19:35:19 10° SSE
Meteor 2-16 Rocket 4.4 19:25:19 10° S 19:31:25 81° E 19:37:33 10° N
Cosmos 1727 Rocket 4.1 19:27:31 10° N 19:33:51 63° E 19:40:07 10° SSE
SPOT 3 Rocket 3.8 19:29:51 10° SE 19:34:50 50° ENE 19:39:52 10° N
Landsat 4 4.0 19:31:18 10° N 19:35:01 70° WNW 19:38:43 10° SSW
ERS-2 2.4 19:31:27 10° S 19:35:07 74° WSW 19:38:51 10° NNW
Lacrosse 5 rocket 3.8 19:35:48 10° WNW 19:38:28 15° NNW 19:41:05 10° NNE
Cosmos 2219 Rocket 3.4 19:35:07 10° N 19:39:18 21° NE 19:43:16 11° E
RESURS DK-1 2.4 19:35:17 10° NNW 19:39:22 58° ENE 19:43:25 10° SE
GRACE-2 4.4 19:38:44 10° SSE 19:41:04 30° E 19:43:23 10° NNE
Cosmos 1484 Rocket 4.1 19:37:34 10° S 19:41:08 44° W 19:44:43 10° NNW
GP-B 3.0 19:37:37 10° N 19:42:05 77° E 19:46:31 10° S
Cosmos 44 Rocket 4.2 19:38:33 10° S 19:42:30 27° ESE 19:46:28 10° NE
FREGAT/IRIS 4.4 19:42:27 13° ENE 19:42:51 14° ENE 19:44:27 10° NE
SL-8 R/B 3.7 19:38:21 10° WSW 19:43:10 89° S 19:47:49 11° ENE
GRACE-1 4.2 19:41:58 10° SSE 19:44:22 36° E 19:46:47 10° NNE
Meteor 1-28 Rocket 3.9 19:43:29 10° N 19:47:13 57° WNW 19:50:55 10° SSW
Cosmos 1452 Rocket 3.5 19:42:08 10° NNW 19:47:23 64° ENE 19:52:35 10° SSE
Cosmos 1703 3.2 19:44:41 10° N 19:48:38 80° E 19:52:31 10° S
Cosmos 1726 3.4 19:45:58 10° SE 19:48:39 19° E 19:51:20 10° NE
Cosmos 2058 2.8 19:45:04 10° N 19:49:16 78° E 19:53:24 10° SSE
SKYMED 2 3.5 19:45:03 10° NNE 19:49:24 72° ESE 19:53:44 10° S
Cosmos 2098 Rocket 4.2 19:45:38 10° SE 19:49:29 29° E 19:54:11 10° NNE
Atlas Centaur 2 3.6 19:46:18 10° SW 19:49:43 21° S 19:53:43 10° SE
BREEZE-M DEB (TANK) 2.3 19:50:26 10° WNW 19:52:29 37° SW 19:54:27 10° SE
Cosmos 1743 Rocket 3.8 19:48:33 10° NNW 19:52:56 73° W 19:57:19 10° S
Delta 2 Rocket 4.3 19:50:17 10° WSW 19:53:41 31° S 19:56:09 14° ESE
Gbstr 26 Del rocket 4.1 19:49:18 10° NW 19:53:57 42° NNE 19:58:18 16° E
SL-16 R/B 3.9 19:49:42 10° NW 19:54:52 37° WSW 20:00:00 10° S
Aureole 2 Rocket 4.1 19:54:26 10° NNE 19:57:21 20° ENE 19:58:14 18° E
Cosmos 2221 2.7 19:55:10 10° SSE 19:59:19 48° E 20:03:31 10° NNE
METEOR-M 4.2 19:55:43 10° SSE 20:01:04 83° WSW 20:06:27 10° NNW
Cosmos 1908 3.2 19:57:27 10° S 20:01:19 63° E 20:05:12 10° NNE
Cosmos 1842 Rocket 4.0 19:56:56 10° SSW 20:01:22 68° W 20:05:50 10° N
Cosmos 2237 4.2 19:56:34 10° NNW 20:02:19 69° ENE 20:07:59 10° SSE
CZ-4C R/B 2.6 19:59:10 10° S 20:03:51 37° ESE 20:08:29 13° NE
SL-24 R/B - RUBIN 2 3.7 19:59:21 10° NW 20:04:14 81° WSW 20:08:37 10° SSE
GENESIS II 4.5 20:00:45 10° SW 20:04:42 72° WNW 20:08:42 10° NNE
BREEZE-M DEB (TANK) 2.5 20:04:11 10° W 20:06:17 38° NNW 20:07:10 23° NNE
NOAA 12 4.0 20:01:11 10° SSE 20:06:28 74° ENE 20:11:47 10° N
Cosmos 921 Rocket 3.0 20:02:33 10° NNW 20:07:02 84° ENE 20:11:24 10° SSE
Cosmos 1400 Rocket 4.1 20:04:49 10° NNW 20:08:41 44° W 20:12:27 10° SSW
H-2A R/B 3.4 20:07:33 15° SE 20:10:16 34° ENE 20:13:50 10° N
Iridium 4 Rocket 3.7 20:06:22 10° SSE 20:11:48 61° E 20:17:34 10° N
BREEZE-M R/B 4.5 20:10:21 10° SSE 20:10:41 11° SSE 20:10:41 11° SSE
Cosmos 2237 Rocket 3.4 20:07:43 10° N 20:12:00 21° NE 20:13:12 20° ENE
Cosmos 1500 Rocket 4.3 20:09:55 10° NNW 20:14:10 55° W 20:18:22 10° S
DELTA 2 R/B (1) 4.0 20:09:55 10° W 20:15:24 58° SSW 20:19:09 20° ESE
CZ-4 R/B 4.2 20:15:14 10° SSW 20:18:33 22° W 20:21:52 10° NW
Cosmos 1626 4.3 20:16:07 10° NNW 20:19:23 29° W 20:22:39 10° SSW
Cosmos 2227 Rocket 4.0 20:16:30 10° SE 20:17:28 13° SE 20:17:28 13° SE
SL-16 R/B 4.1 20:19:48 10° NNE 20:21:48 12° NE 20:21:48 12° NE
Resurs 01 Rocket 3.3 20:23:46 17° NE 20:23:46 17° NE 20:25:27 10° NNE
ALOS 2.4 20:20:28 10° S 20:25:08 78° W 20:29:50 10° NNW
Cosmos 1048 Rocket 3.8 20:20:40 10° S 20:25:46 74° ESE 20:30:54 10° NNE
Cosmos 1420 Rocket 4.3 20:26:28 10° NNW 20:31:46 71° WSW 20:37:00 10° S
Cosmos 1300 4.2 20:29:57 10° SSE 20:31:27 22° SSE 20:31:27 22° SSE
Envisat 4.1 20:35:33 25° NE 20:35:33 25° NE 20:38:49 10° N
Cosmos 2360 Rocket 3.4 20:29:37 10° NW 20:34:57 43° WSW 20:40:15 10° S
APEX 2.8 20:31:58 10° SSW 20:35:10 65° WNW 20:35:53 45° N
Cosmos 1980 4.4 20:30:49 10° N 20:35:53 32° ENE 20:36:26 32° ENE
NOSS 0 Rocket 4.2 20:30:05 10° NNW 20:35:58 44° ENE 20:37:56 34° E
Cosmos 1535 Rocket 4.3 20:29:57 10° S 20:36:03 71° E 20:42:08 10° NNE
COSMO-SKYMED 1 4.3 20:33:27 10° N 20:37:21 34° WNW 20:41:16 10° SW
Thor Agena Rocket 3.4 20:32:23 10° NNE 20:37:31 82° ESE 20:42:34 10° SSW
COSMOS 2428 2.6 20:33:00 10° NNW 20:38:44 89° ENE 20:44:03 12° SSE
Cosmos 158 Rocket 4.2 20:34:46 10° SSW 20:39:47 69° WNW 20:44:59 10° NNE
Cosmos 2333 Rocket 2.4 20:36:22 10° NNW 20:41:59 51° ENE 20:43:38 39° ESE
Sich 1 2.9 20:39:13 10° N 20:43:34 63° E 20:44:35 47° SE
Cosmos 2219 3.1 20:40:41 10° SSW 20:46:26 87° ESE 20:52:13 10° NNE
Abrixas rocket 4.0 20:45:01 10° NW 20:47:29 24° N 20:47:29 24° N
BREEZE-M DEB (TANK) 3.3 20:41:41 10° W 20:51:00 56° N 20:52:04 44° NE
Cosmos 1805 Rocket 3.9 20:48:27 10° NNW 20:52:49 66° W 20:57:11 10° S
Centaur D AC-29 3.5 20:52:33 10° WSW 20:57:26 17° SSW 20:59:13 14° S
FengYun 1-2 T 4.4 20:53:45 10° S 20:59:14 73° WSW 21:04:44 10° NNW
Cosmos 44 3.6 20:55:34 10° SW 20:59:50 53° NW 21:01:36 31° N
Cosmos 1666 Rocket 3.4 20:57:23 10° N 21:01:46 84° W 21:02:14 70° S
Cosmos 1331 Rocket 4.1 20:57:53 10° NNW 21:02:36 55° NE 21:02:36 55° NE
Cosmos 1821 Rocket 4.5 21:00:57 10° SSW 21:07:00 60° W 21:13:12 10° N
Cosmos 1633 Rocket 3.2 21:04:44 10° N 21:08:36 67° NNW 21:08:36 67° NNW
Cosmos 1934 Rocket 4.2 21:04:19 10° SSW 21:10:40 74° W 21:17:04 10° N
USA 267 3.1 21:12:42 56° E 21:13:50 65° SE 21:20:19 10° SW
SJ-6B 3.8 21:16:15 42° WNW 21:16:15 42° WNW 21:19:21 10° NNW
MOS 1-B Rocket 3.7 21:15:59 59° SSE 21:17:09 85° ENE 21:23:15 10° NNW
Cosmos 2219 Rocket 2.5 21:18:11 10° NNW 21:23:43 64° WSW 21:25:02 49° SSW
Cosmos 1726 4.4 21:20:42 10° SW 21:23:46 24° WNW 21:26:51 10° NNW
Atlas Centaur 2 4.3 21:35:03 10° SW 21:37:33 15° SSW 21:37:33 15° SSW
Gbstr 26 Del rocket 4.1 21:35:53 10° WNW 21:40:52 61° WSW 21:40:52 61° WSW
Cosmos 1605 Rocket 4.3 21:35:14 10° SSW 21:41:15 62° W 21:47:19 10° N
USA 234 3.9 21:49:37 43° N 21:49:37 43° N 21:55:00 10° NW
CZ-4C R/B 3.5 21:47:24 10° WSW 21:52:18 36° NW 21:53:44 32° NNW
Cosmos 2237 Rocket 3.0 21:50:54 10° NNW 21:55:03 47° NW 21:55:03 47° NW
Resurs 01 Rocket 4.1 22:01:21 18° NW 22:01:21 18° NW 22:02:37 10° NNW
Cosmos 2227 Rocket 4.3 21:58:12 10° SW 21:59:25 17° SW 21:59:25 17° SW
SL-16 R/B 4.0 22:01:32 10° NNW 22:03:41 24° NNW 22:03:41 24° NNW
Cosmos 2333 Rocket 4.2 22:21:24 10° NW 22:25:41 23° W 22:25:41 23° W
